TITAN 4B R/B

Last updated on Sun Jun 21 2026 00:02:15 GMT+0000 (Coordinated Universal Time)

1 26474U 00047B 26171.37175720 .00002473 00000+0 15570-3 0 9999 2 26474 67.9884 111.6092 0045860 283.7197 75.8849 15.10212746408414
UTC large
Height (km)
Speed (km/s)
/
Latitude / Longitude
Inclination (degrees)
Orbital Period (minutes)
Azimuth
Elevation
Range (km)
Doppler Factor

Next 0 passes for location: London (51.5072 / 0.1276)

No passes found over London.
TITAN 4B R/B